This is the latest recevied weather packets stored in our database for station/object DL1MMS-10. If no packets are shown the sender has not sent any weather packets the latest 10 day(s).
| Time | Temp. | Humidity | Pressure | Rain* | Wind** | Luminosity | Snow |
|---|---|---|---|---|---|---|---|
| 1777841741 | 15° C | 52% | 1015.9 hPa | 0 mm | - | - | - |
| 1777841441 | 15° C | 52% | 1015.8 hPa | 0 mm | - | - | - |
| 1777841141 | 15° C | 52% | 1015.7 hPa | 0 mm | - | - | - |
| 1777840840 | 15.56° C | 51% | 1016 hPa | 0 mm | - | - | - |
| 1777840540 | 15.56° C | 51% | 1015.9 hPa | 0 mm | - | - | - |
| 1777840240 | 15.56° C | 51% | 1015.7 hPa | 0 mm | - | - | - |
| 1777839939 | 15.56° C | 51% | 1015.7 hPa | 0 mm | - | - | - |
| 1777839639 | 15.56° C | 51% | 1015.7 hPa | 0 mm | - | - | - |
| 1777839339 | 15.56° C | 51% | 1015.6 hPa | 0 mm | - | - | - |
| 1777839039 | 16.11° C | 51% | 1015.5 hPa | 0 mm | - | - | - |
| 1777838738 | 16.11° C | 51% | 1015.4 hPa | 0 mm | - | - | - |
| 1777838438 | 16.11° C | 51% | 1015.5 hPa | 0 mm | - | - | - |
| 1777838138 | 16.11° C | 50% | 1015.4 hPa | 0 mm | - | - | - |
| 1777837837 | 16.11° C | 50% | 1015.3 hPa | 0 mm | - | - | - |
| 1777837537 | 16.11° C | 51% | 1015.1 hPa | 0 mm | - | - | - |
| 1777837237 | 15.56° C | 51% | 1015.1 hPa | 0 mm | - | - | - |
| 1777836937 | 15.56° C | 51% | 1014.9 hPa | 0 mm | - | - | - |
| 1777836636 | 15.56° C | 51% | 1015.1 hPa | 0 mm | - | - | - |
| 1777836336 | 15.56° C | 51% | 1015 hPa | 0 mm | - | - | - |
| 1777836036 | 16.11° C | 50% | 1014.7 hPa | 0 mm | - | - | - |
| 1777835735 | 16.11° C | 50% | 1014.6 hPa | 0 mm | - | - | - |
| 1777835435 | 16.11° C | 50% | 1014.6 hPa | 0 mm | - | - | - |
| 1777835135 | 16.67° C | 49% | 1014.6 hPa | 0 mm | - | - | - |
| 1777834835 | 16.67° C | 49% | 1014.5 hPa | 0 mm | - | - | - |
| 1777834534 | 17.22° C | 48% | 1014.4 hPa | 0 mm | - | - | - |
* Rain latest hour (hover to see other rain measurements)
** Current wind speed in m/s (hover to see current wind gust speed)